Content
SEND FEEDBACK

Daily
Averages
Monthly
Summary
United States of America

JEFFERSON CITY, MISSOURI


Home > North America > United States > Missouri
Elevation: 622 feet     Latitude: 38 34N     Longitude: 092 09W

WEATHER
 
SELECT A DAY
Number of Records: 193,938;   Date Range: 1/2/95 - 9/30/14
 
SHARE

PRINT THIS DATA

[ ← Previous Day ]
WEATHER ALMANAC - JANUARY 23, 2013
[ Next Day → ]
[ °C ]   °F
Weather ElementAverageHighLow
Temperature30.1 °F46.9 °F (2:53 pm)14 °F (6:53 am)
Dewpoint14.8 °F21 °F (3:53 pm)6.1 °F (1:53 am)
Humidity54.9 %74 % (6:53 am)34 % (2:53 pm)
Barometer30.26 in30.38 in (11:53 pm)30.15 in (2:53 pm)
Wind Speed5 mph11.5 mph (2:53 pm)
Weather ElementAverage
Visibility10 mi
Wind DirectionS (179.6 °)

Weather ElementTotal
Precipitation---
Heating Degree Days34.6 (Base 65)
Averaged from 23 records on January 23, 2013
WEATHER CONDITIONS BREAKOUT
WIND DIRECTION BREAKOUT
WEATHER BY HOUR - JANUARY 23, 2013
[ °C ]   °F
Local TimeTemperatureDewpointHumidityBarometerVisibilityWind DirectionWind SpeedGust SpeedPrecipitationEventsConditions
1:53 AM17.1 °F6.1 °F62 %30.32 in10.0 miEast (90°)4.6 mphClear
2:53 AM16.0 °F7.0 °F68 %30.31 in10.0 miEast (100°)3.5 mphClear
3:53 AM15.1 °F7.0 °F70 %30.28 in10.0 miESE (120°)3.5 mphClear
4:53 AM15.1 °F7.0 °F70 %30.28 in10.0 miESE (120°)3.5 mphClear
5:53 AM15.1 °F7.0 °F70 %30.29 in10.0 miCalmClear
6:53 AM14.0 °F7.0 °F74 %30.29 in10.0 miCalmClear
7:53 AM14.0 °F7.0 °F74 %30.28 in10.0 miCalmClear
8:53 AM19.0 °F10.0 °F68 %30.27 in10.0 miESE (120°)5.8 mphClear
9:53 AM26.1 °F15.1 °F63 %30.26 in10.0 miCalmClear
10:53 AM32.0 °F17.1 °F54 %30.25 in10.0 miCalmClear
11:53 AM37.0 °F18.0 °F46 %30.21 in10.0 miVariable3.5 mphClear
12:53 PM42.1 °F19.0 °F40 %30.18 in10.0 miNNW (340°)5.8 mphClear
1:53 PM44.1 °F19.9 °F38 %30.16 in10.0 miWNW (300°)6.9 mphClear
2:53 PM46.9 °F19.9 °F34 %30.15 in10.0 miNW (310°)11.5 mphClear
3:53 PM46.9 °F21.0 °F36 %30.16 in10.0 miNW (320°)9.2 mphClear
4:53 PM45.0 °F21.0 °F39 %30.17 in10.0 miWNW (300°)6.9 mphClear
5:53 PM39.9 °F21.0 °F47 %30.20 in10.0 miNW (310°)5.8 mphClear
6:53 PM37.0 °F21.0 °F52 %30.22 in10.0 miWNW (300°)4.6 mphClear
7:53 PM37.0 °F19.9 °F50 %30.25 in10.0 miNNW (340°)5.8 mphClear
8:53 PM36.0 °F19.0 °F50 %30.29 in10.0 miNNW (340°)9.2 mphClear
9:53 PM35.1 °F18.0 °F50 %30.32 in10.0 miNorth (10°)8.1 mphClear
10:53 PM32.0 °F17.1 °F54 %30.36 in10.0 miNorth (350°)6.9 mphClear
11:53 PM30.0 °F15.1 °F54 %30.38 in10.0 miNorth (360°)9.2 mphClear
Hourly data recorded from KJEF, located miles away from Jefferson City, Missouri







STORIES FROM OUR PARTNERS